Back to catalog

PRSS 1

AliveScienceSSO
NORAD 43530·PAYLOAD·🇵🇰 Pakistan

Launched Jul 9, 2018 from Jiuquan Satellite Launch Center

Loading…

Next Passes (next 24 hours)

TLE

FreshSource: Space-Track

Epoch: Sep 14, 2026, 15:32 UTC

1 43530U 18056B   26257.64790624  .00000174  00000-0  28287-4 0  9998
2 43530  97.7740 323.0070 0001802  82.3605 277.7813 14.82099108441681

Track PRSS 1 in real time with AllMySat

Download on the App Store